Location: Las Vegas
(36.1750°N, 115.1360°W)
Time: 07:11:52
(UTC-07:00)

Amateur Radio Satellites - All Passes

Search period start: 31 October 2014 06:41
Search period end: 01 November 2014 06:41
Location: Las Vegas, 36.1750°N, 115.1360°W

Satellite Date Start Highest point End Downlink Frequencies (MHz)
Time Altitude Azimuth
Uosat F 31 Oct 06:44:10 06:46:19 13° 298° (WNW) 06:48:27 435.120 FM
Saudisat 1A 31 Oct 07:00:41 07:03:31 17° 313° (NW) 07:06:22 436.775 MHz
PANSAT 31 Oct 07:03:07 07:06:05 21° 190° (S) 07:09:02 not established
JAS-2 31 Oct 07:14:38 07:21:42 38° 293° (WNW) 07:28:34 435.800 - 435.900 CW/SSB, 435.910 FM
SO-67 31 Oct 07:27:39 07:30:59 46° 99° (E) 07:34:18 435.3500 MHz FM
AO-7 31 Oct 07:44:37 07:46:40 11° 312° (NW) 07:48:44 29.400 - 29.500 MHz
STRAND 1 31 Oct 08:11:29 08:14:01 14° 268° (W) 08:16:33 ?
MaSat-1 31 Oct 08:23:28 08:25:22 21° 252° (WSW) 08:27:13 437.345 MHz
HO-68 31 Oct 08:28:22 08:33:30 21° 94° (E) 08:38:36 435.675 MHz FM
RS-15 31 Oct 08:50:33 08:57:48 20° 259° (W) 09:05:17 29.354 - 29.394 USB, Beacon 29.352 USB
ISS 31 Oct 09:10:15 09:13:12 30° 132° (SE) 09:16:10 145.800 FM
KITSAT 1 31 Oct 09:33:24 09:39:55 28° 105° (ESE) 09:46:26 435.175 FM
UKube-1 31 Oct 10:08:11 10:12:28 52° 101° (E) 10:16:42 145.840 MHz, 145.915 MHz
HO-68 31 Oct 10:14:32 10:21:38 65° 289° (WNW) 10:28:42 435.675 MHz FM
PCSat 31 Oct 10:14:58 10:18:09 16° 48° (NE) 10:21:18 145.825 MHz
ZACube-1 31 Oct 10:17:31 10:20:59 25° 96° (E) 10:24:25 437.345 MHz
Oscar 11 31 Oct 10:43:16 10:47:31 59° 285° (WNW) 10:51:44 145.825 FM, Beacon 2401.500 USB
ISS 31 Oct 10:47:06 10:49:54 25° 328° (NNW) 10:52:43 145.800 FM
SO-50 31 Oct 10:47:59 10:52:24 66° 117° (ESE) 10:56:57 436.795 FM
FUNcube-1 31 Oct 10:59:51 11:04:02 85° 102° (ESE) 11:08:11 145.950 - 145.970 MHz USB
KITSAT 1 31 Oct 11:26:51 11:34:46 59° 302° (WNW) 11:42:44 435.175 FM
UOSAT-12 31 Oct 11:33:43 11:36:38 17° 109° (ESE) 11:39:34 437.025 FM, 437.400 FM
Sapphire 31 Oct 11:35:03 11:40:27 64° 61° (ENE) 11:45:49 437.095 MHz 1200 baud AX-25 AFSK
UKube-1 31 Oct 11:46:16 11:48:09 13° 295° (WNW) 11:50:03 145.840 MHz, 145.915 MHz
ZACube-1 31 Oct 11:54:02 11:57:15 22° 291° (WNW) 12:00:26 437.345 MHz
PCSat 31 Oct 11:56:44 12:02:10 76° 245° (WSW) 12:07:33 145.825 MHz
HO-68 31 Oct 12:06:34 12:07:57 11° 307° (NW) 12:09:20 435.675 MHz FM
Oscar 16 31 Oct 12:11:13 12:14:09 15° 64° (ENE) 12:17:04 437.025 USB, Beacon 2401.1428
SO-50 31 Oct 12:30:54 12:33:25 15° 315° (NW) 12:35:59 436.795 FM
Uribyol 2 31 Oct 12:44:42 12:47:12 14° 62° (ENE) 12:49:41 436.500 FM
AO-Echo 31 Oct 12:45:49 12:48:52 16° 64° (ENE) 12:51:57 ?
ITAMSAT 1 31 Oct 12:52:12 12:55:06 15° 63° (ENE) 12:58:01 435.822 SSB
Oscar 19 31 Oct 13:01:02 13:05:55 46° 72° (ENE) 13:10:48 437.125 CW, 437.150 USB
UOSAT-12 31 Oct 13:11:53 13:16:21 47° 304° (NW) 13:20:54 437.025 FM, 437.400 FM
Sapphire 31 Oct 13:20:23 13:23:16 15° 257° (WSW) 13:26:08 437.095 MHz 1200 baud AX-25 AFSK
JAS-1B 31 Oct 13:24:29 13:30:15 70° 74° (ENE) 13:35:55 435.800 - 435.900 CW/SSB
KITSAT 1 31 Oct 13:28:03 13:32:03 14° 325° (NW) 13:36:04 435.175 FM
AO-27 31 Oct 13:37:29 13:42:22 42° 71° (ENE) 13:47:17 436.795 MHz FM
Oscar 16 31 Oct 13:47:54 13:52:58 58° 259° (W) 13:58:03 437.025 USB, Beacon 2401.1428
Saudisat 1A 31 Oct 13:49:06 13:52:27 21° 50° (NE) 13:55:48 436.775 MHz
Gurwin Techsat 1B 31 Oct 13:53:43 13:58:20 31° 69° (ENE) 14:02:58 435.225 FM
TMSAT-1 31 Oct 14:00:21 14:04:42 27° 68° (ENE) 14:09:03 436.925 FM
Uribyol 2 31 Oct 14:20:50 14:26:02 69° 258° (WSW) 14:31:16 436.500 FM
AO-Echo 31 Oct 14:22:16 14:27:06 53° 260° (W) 14:32:07 ?
ITAMSAT 1 31 Oct 14:28:53 14:34:02 61° 259° (WSW) 14:39:13 435.822 SSB
Oscar 19 31 Oct 14:42:01 14:45:27 18° 266° (W) 14:48:53 437.125 CW, 437.150 USB
AO-7 31 Oct 14:52:08 14:59:06 32° 60° (ENE) 15:06:04 29.400 - 29.500 MHz
AO-27 31 Oct 15:18:13 15:22:01 20° 266° (W) 15:25:50 436.795 MHz FM
JAS-1B 31 Oct 15:19:53 15:21:31 11° 269° (W) 15:23:08 435.800 - 435.900 CW/SSB
Saudisat 1A 31 Oct 15:28:02 15:32:08 38° 246° (WSW) 15:36:12 436.775 MHz
Gurwin Techsat 1B 31 Oct 15:33:42 15:38:13 29° 264° (W) 15:42:47 435.225 FM
TMSAT-1 31 Oct 15:39:40 15:44:26 34° 263° (W) 15:49:14 436.925 FM
ISS 31 Oct 15:41:21 15:43:39 17° 28° (NNE) 15:45:57 145.800 FM
JAS-2 31 Oct 15:42:12 15:44:59 13° 55° (NE) 15:47:54 435.800 - 435.900 CW/SSB, 435.910 FM
Uosat F 31 Oct 16:13:38 16:18:38 72° 75° (ENE) 16:23:40 435.120 FM
AO-7 31 Oct 16:43:24 16:51:26 55° 257° (WSW) 16:59:32 29.400 - 29.500 MHz
OPAL 31 Oct 16:48:41 16:50:29 12° 94° (E) 16:52:17 ?
Hamsat 31 Oct 17:17:17 17:21:10 39° 73° (ENE) 17:25:03 145.90 MHz
ISS 31 Oct 17:17:18 17:20:35 58° 224° (SW) 17:23:52 145.800 FM
JAS-2 31 Oct 17:22:31 17:28:41 82° 75° (ENE) 17:35:44 435.800 - 435.900 CW/SSB, 435.910 FM
KITSAT 1 31 Oct 17:30:47 17:32:51 11° 30° (NNE) 17:34:55 435.175 FM
Oscar 10/S400 31 Oct 17:43:18 18:05:43 68° 184° (S) 03:23:02 145.825 - 145.975 CW/USB, Beacon 145.810 USB
Uosat F 31 Oct 17:56:50 17:57:52 11° 269° (W) 17:58:55 435.120 FM
SO-67 31 Oct 18:00:03 18:00:50 11° 68° (ENE) 18:01:36 435.3500 MHz FM
OPAL 31 Oct 18:24:51 18:29:45 64° 288° (WNW) 18:34:38 ?
STRAND 1 31 Oct 18:43:24 18:47:36 25° 96° (E) 18:51:46 ?
RS-15 31 Oct 18:50:24 18:55:40 15° 98° (E) 19:00:53 29.354 - 29.394 USB, Beacon 29.352 USB
Hamsat 31 Oct 18:55:02 18:57:15 14° 267° (W) 18:59:28 145.90 MHz
HO-68 31 Oct 18:57:25 19:00:07 13° 54° (NE) 19:02:49 435.675 MHz FM
JAS-2 31 Oct 19:11:46 19:14:42 13° 274° (W) 19:17:48 435.800 - 435.900 CW/SSB, 435.910 FM
SO-50 31 Oct 19:22:12 19:26:31 31° 53° (NE) 19:30:50 436.795 FM
KITSAT 1 31 Oct 19:23:00 19:30:40 45° 54° (NE) 19:38:17 435.175 FM
SO-67 31 Oct 19:30:15 19:33:25 35° 262° (W) 19:36:36 435.3500 MHz FM
STRAND 1 31 Oct 20:22:12 20:26:47 33° 290° (WNW) 20:31:20 ?
HO-68 31 Oct 20:39:27 20:46:35 74° 72° (ENE) 20:53:45 435.675 MHz FM
RS-15 31 Oct 20:55:08 21:06:10 80° 116° (ESE) 21:17:05 29.354 - 29.394 USB, Beacon 29.352 USB
UKube-1 31 Oct 21:01:09 21:05:02 32° 71° (ENE) 21:08:55 145.840 MHz, 145.915 MHz
SO-50 31 Oct 21:02:48 21:06:59 29° 248° (WSW) 21:11:10 436.795 FM
ZACube-1 31 Oct 21:12:01 21:14:57 17° 68° (ENE) 21:17:51 437.345 MHz
KITSAT 1 31 Oct 21:18:38 21:25:54 38° 252° (WSW) 21:33:08 435.175 FM
Oscar 11 31 Oct 21:35:17 21:39:35 76° 76° (ENE) 21:43:54 145.825 FM, Beacon 2401.500 USB
UOSAT-12 31 Oct 21:43:50 21:48:33 70° 59° (ENE) 21:53:09 437.025 FM, 437.400 FM
FUNcube-1 31 Oct 21:53:07 21:57:29 48° 74° (ENE) 22:01:47 145.950 - 145.970 MHz USB
MaSat-1 31 Oct 21:54:26 21:58:25 77° 293° (WNW) 22:02:00 437.345 MHz
HO-68 31 Oct 22:30:20 22:34:50 18° 268° (W) 22:39:23 435.675 MHz FM
UKube-1 31 Oct 22:38:09 22:41:14 19° 265° (W) 22:44:20 145.840 MHz, 145.915 MHz
ZACube-1 31 Oct 22:46:45 22:51:01 39° 262° (W) 22:55:14 437.345 MHz
AO-40 31 Oct 23:08:02 00:00:42 13° 242° (WSW) 01:14:11 Beacon 2401.320
RS-15 31 Oct 23:10:29 23:19:41 30° 320° (NW) 23:28:58 29.354 - 29.394 USB, Beacon 29.352 USB
UOSAT-12 31 Oct 23:27:02 23:28:01 11° 254° (WSW) 23:29:01 437.025 FM, 437.400 FM
FUNcube-1 31 Oct 23:31:51 23:34:03 13° 267° (W) 23:36:14 145.950 - 145.970 MHz USB
Sapphire 01 Nov 00:35:15 00:36:41 11° 102° (ESE) 00:38:08 437.095 MHz 1200 baud AX-25 AFSK
PCSat 01 Nov 00:54:08 00:58:00 20° 106° (ESE) 01:01:54 145.825 MHz
JAS-1B 01 Nov 01:09:37 01:15:50 27° 97° (E) 01:22:51 435.800 - 435.900 CW/SSB
Oscar 19 01 Nov 01:16:07 01:19:51 20° 94° (E) 01:23:34 437.125 CW, 437.150 USB
RS-15 01 Nov 01:32:55 01:37:27 13° 355° (N) 01:42:02 29.354 - 29.394 USB, Beacon 29.352 USB
AO-27 01 Nov 01:54:10 01:57:47 19° 94° (E) 02:01:22 436.795 MHz FM
Oscar 16 01 Nov 02:02:14 02:07:19 62° 101° (ESE) 02:12:22 437.025 USB, Beacon 2401.1428
Gurwin Techsat 1B 01 Nov 02:13:44 02:16:43 15° 92° (E) 02:19:40 435.225 FM
Sapphire 01 Nov 02:13:56 02:19:20 80° 297° (WNW) 02:24:47 437.095 MHz 1200 baud AX-25 AFSK
TMSAT-1 01 Nov 02:20:29 02:22:32 12° 91° (E) 02:24:36 436.925 FM
AO-Echo 01 Nov 02:31:59 02:37:17 63° 101° (E) 02:42:28 ?
PCSat 01 Nov 02:35:49 02:41:01 47° 301° (WNW) 02:46:15 145.825 MHz
Uribyol 2 01 Nov 02:36:25 02:41:30 53° 100° (E) 02:46:31 436.500 FM
ITAMSAT 1 01 Nov 02:44:30 02:49:40 60° 101° (E) 02:54:46 435.822 SSB
Oscar 19 01 Nov 02:54:32 02:59:18 41° 289° (WNW) 03:04:04 437.125 CW, 437.150 USB
JAS-1B 01 Nov 02:59:19 03:06:28 59° 288° (WNW) 03:14:57 435.800 - 435.900 CW/SSB
PANSAT 01 Nov 03:18:43 03:21:12 16° 165° (SSE) 03:23:40 not established
AO-27 01 Nov 03:32:30 03:37:28 45° 289° (WNW) 03:42:24 436.795 MHz FM
Oscar 16 01 Nov 03:43:24 03:46:06 15° 297° (WNW) 03:48:49 437.025 USB, Beacon 2401.1428
RS-15 01 Nov 03:47:58 03:56:09 22° 32° (NNE) 04:04:31 29.354 - 29.394 USB, Beacon 29.352 USB
Gurwin Techsat 1B 01 Nov 03:51:47 03:57:00 58° 287° (WNW) 04:02:11 435.225 FM
TMSAT-1 01 Nov 03:57:37 04:02:54 69° 286° (WNW) 04:08:09 436.925 FM
OPAL 01 Nov 04:00:17 04:03:44 19° 63° (ENE) 04:07:09 ?
Sapphire 01 Nov 04:01:41 04:03:37 12° 315° (NW) 04:05:34 437.095 MHz 1200 baud AX-25 AFSK
AO-Echo 01 Nov 04:12:28 04:15:26 15° 297° (WNW) 04:18:23 ?
Uribyol 2 01 Nov 04:17:13 04:20:29 17° 296° (WNW) 04:23:45 436.500 FM
Uosat F 01 Nov 04:24:37 04:28:53 27° 96° (E) 04:33:08 435.120 FM
ITAMSAT 1 01 Nov 04:25:39 04:28:36 15° 297° (WNW) 04:31:33 435.822 SSB
JAS-2 01 Nov 04:36:47 04:41:22 16° 88° (E) 04:45:48 435.800 - 435.900 CW/SSB, 435.910 FM
AO-7 01 Nov 04:47:36 04:55:52 62° 104° (ESE) 05:04:05 29.400 - 29.500 MHz
PANSAT 01 Nov 04:57:37 05:00:49 25° 178° (S) 05:04:02 not established
Saudisat 1A 01 Nov 05:31:18 05:35:40 79° 300° (WNW) 05:40:05 436.775 MHz
OPAL 01 Nov 05:37:17 05:42:13 48° 258° (WSW) 05:47:07 ?
STRAND 1 01 Nov 05:56:48 06:01:08 28° 68° (ENE) 06:05:30 ?
RS-15 01 Nov 05:59:37 06:10:51 73° 58° (ENE) 06:22:35 29.354 - 29.394 USB, Beacon 29.352 USB
Uosat F 01 Nov 06:03:14 06:07:35 30° 291° (WNW) 06:11:55 435.120 FM
JAS-2 01 Nov 06:19:15 06:27:11 87° 285° (WNW) 06:34:42 435.800 - 435.900 CW/SSB, 435.910 FM
